Weather History for Athens, OH

Change the Weather History Date:

Monday, January 6, 2014

  Actual Average (KPKB) Record (KPKB)
Temperature  
Mean Temperature 19 °F 32 °F  
Max Temperature 41 °F 40 °F 74 °F (1946)
Min Temperature -4 °F 24 °F -3 °F (1942)
Degree Days  
Heating Degree Days 46 33  
Month to date heating degree days 198  
Cooling Degree Days 0 0  
Month to date cooling degree days 0  
Year to date cooling degree days 0  
Moisture  
Dew Point 2 °F    
Average Humidity 71    
Maximum Humidity 90    
Minimum Humidity 52    
Precipitation  
Precipitation 0.00 in 0.09 in 0.78 in (2009)
Sea Level Pressure  
Sea Level Pressure 30.04 in    
Wind  
Wind Speed 19 mph (West)    
Max Wind Speed 26 mph    
Max Gust Speed 38 mph    
Visibility 8 miles    
Events Rain , Snow    
T = Trace of Precipitation, MM = Missing Value Source: NWS Daily Summary

Daily Weather History Graph

Daily Weather History Graph

Search for Another Location

Airport:

Trip Planner

Search our weather history database for the weather conditions in past years. The results will help you decide how hot, cold, wet, or windy it might be!

Date:

Astronomy

Jan. 06, 2014 Rise Set
Actual Time 7:48 AM EST 5:21 PM EST
Civil Twilight 7:18 AM EST 5:51 PM EST
Nautical Twilight 6:45 AM EST 6:24 PM EST
Astronomical Twilight 6:13 AM EST 6:56 PM EST
Moon 11:05 AM EST (1/6) 11:50 PM EST (1/6)
Length of Visible Light 10h 32m
Length of Day
9h 32m
Waxing Crescent, 34% of the Moon is Illuminated
Jan 6
Waxing Crescent
Jan 7
First Quarter
Jan 15
Full
Jan 24
Last Quarter
Jan 30
New

Hourly Weather History & Observations

Time (EST) Temp. Windchill Dew Point Humidity Pressure Visibility Wind Dir Wind Speed Gust Speed Precip Events Conditions
12:15 AM 41.5 °F 31.2 °F 38.1 °F 88% 29.50 in 10.0 mi WSW 26.5 mph 36.8 mph N/A Rain Light Rain
12:35 AM 39.4 °F 28.7 °F 35.4 °F 86% 29.53 in 10.0 mi West 24.2 mph 36.8 mph N/A Rain Light Rain
12:55 AM 35.6 °F 24.8 °F 32.4 °F 88% 29.54 in 10.0 mi West 19.6 mph 28.8 mph N/A Rain Light Rain
1:15 AM 32.2 °F 19.1 °F 29.5 °F 90% 29.59 in 2.5 mi West 24.2 mph 38.0 mph N/A Snow Light Snow
1:35 AM 30.6 °F 17.3 °F 27.7 °F 89% 29.63 in 4.0 mi West 23.0 mph 38.0 mph N/A Snow Light Snow
1:55 AM 28.4 °F 15.4 °F 24.4 °F 85% 29.65 in 10.0 mi West 19.6 mph 36.8 mph N/A   Overcast
2:15 AM 27.5 °F 15.0 °F 23.5 °F 85% 29.68 in 10.0 mi West 17.3 mph 27.6 mph N/A   Overcast
2:35 AM 27.3 °F 17.7 °F 23.4 °F 85% 29.72 in 10.0 mi West 10.4 mph 24.2 mph N/A   Overcast
2:55 AM 26.4 °F 11.8 °F 21.7 °F 82% 29.74 in 10.0 mi West 23.0 mph 28.8 mph N/A   Overcast
3:15 AM 26.2 °F 10.9 °F 21.4 °F 82% 29.77 in 10.0 mi West 25.3 mph 31.1 mph N/A   Overcast
3:35 AM 25.7 °F 13.1 °F 20.7 °F 81% 29.79 in 10.0 mi West 16.1 mph 25.3 mph N/A   Overcast
3:55 AM 25.3 °F 13.1 °F 20.3 °F 81% 29.80 in 10.0 mi West 15.0 mph 25.3 mph N/A   Overcast
4:15 AM 24.8 °F 12.4 °F 19.8 °F 81% 29.82 in 10.0 mi West 15.0 mph 20.7 mph N/A Snow Light Snow
4:35 AM 24.6 °F 12.2 °F 19.0 °F 79% 29.83 in 10.0 mi West 15.0 mph 27.6 mph N/A Snow Light Snow
4:55 AM 23.9 °F 10.3 °F 17.1 °F 75% 29.84 in 7.0 mi WNW 17.3 mph 29.9 mph N/A Snow Light Snow
5:15 AM 23.7 °F 13.3 °F 18.3 °F 80% 29.85 in 7.0 mi West 10.4 mph - N/A Snow Light Snow
5:35 AM 23.0 °F 7.6 °F 17.6 °F 80% 29.87 in 7.0 mi West 21.9 mph 26.5 mph N/A Snow Light Snow
5:55 AM 21.2 °F 6.4 °F 15.1 °F 77% 29.89 in 7.0 mi West 18.4 mph 26.5 mph N/A Snow Light Snow
6:15 AM 20.1 °F 5.0 °F 14.5 °F 79% 29.90 in 7.0 mi West 18.4 mph 25.3 mph N/A Snow Light Snow
6:35 AM 19.2 °F 4.7 °F 13.5 °F 78% 29.91 in 7.0 mi West 16.1 mph 21.9 mph N/A Snow Light Snow
6:55 AM 18.3 °F 2.6 °F 12.6 °F 78% 29.93 in 4.0 mi West 18.4 mph 27.6 mph N/A Snow Light Snow
7:15 AM 16.9 °F -0.1 °F 11.3 °F 79% 29.94 in 5.0 mi West 20.7 mph 26.5 mph N/A Snow Light Snow
7:35 AM 14.7 °F -1.6 °F 7.7 °F 74% 29.96 in 10.0 mi WNW 17.3 mph 24.2 mph N/A Snow Light Snow
7:55 AM 13.8 °F -4.9 °F 7.2 °F 75% 29.98 in 5.0 mi West 23.0 mph 28.8 mph N/A Snow Light Snow
8:15 AM 12.7 °F -3.6 °F 6.1 °F 75% 29.99 in 5.0 mi West 16.1 mph 23.0 mph N/A Snow Light Snow
8:35 AM 12.2 °F -1.8 °F 7.2 °F 80% 30.01 in 1.2 mi West 11.5 mph 18.4 mph N/A Snow Light Snow
8:55 AM 11.3 °F -4.3 °F 4.6 °F 75% 30.02 in - West 13.8 mph - N/A   Unknown
9:15 AM 10.4 °F -7.2 °F 4.1 °F 76% 30.03 in 3.0 mi West 17.3 mph 25.3 mph N/A Snow Light Snow
9:35 AM 9.5 °F -5.2 °F 2.5 °F 73% 30.04 in 7.0 mi WNW 11.5 mph 21.9 mph N/A Snow Light Snow
9:55 AM 9.3 °F -7.4 °F 2.8 °F 75% 30.05 in 3.0 mi WNW 15.0 mph 19.6 mph N/A Snow Light Snow
10:15 AM 8.8 °F -10.8 °F 2.5 °F 76% 30.06 in 2.5 mi West 20.7 mph 28.8 mph N/A Snow Light Snow
10:35 AM 7.7 °F -8.2 °F -1.3 °F 67% 30.07 in 10.0 mi West 12.7 mph 27.6 mph N/A   Overcast
10:55 AM 7.0 °F -14.0 °F -2.6 °F 65% 30.08 in 7.0 mi West 23.0 mph 28.8 mph N/A   Overcast
11:15 AM 5.9 °F -14.1 °F -5.6 °F 59% 30.09 in 10.0 mi West 19.6 mph 29.9 mph N/A   Overcast
11:35 AM 7.3 °F -8.6 °F -4.2 °F 59% 30.09 in 10.0 mi WNW 12.7 mph 27.6 mph N/A   Scattered Clouds
11:55 AM 5.4 °F -13.7 °F -7.4 °F 56% 30.08 in 10.0 mi WNW 17.3 mph 29.9 mph N/A   Scattered Clouds
12:15 PM 6.8 °F -14.3 °F -5.6 °F 57% 30.07 in 10.0 mi WSW 23.0 mph 28.8 mph N/A   Scattered Clouds
12:35 PM 5.7 °F -13.2 °F -8.7 °F 52% 30.07 in 10.0 mi West 17.3 mph 26.5 mph N/A   Scattered Clouds
12:55 PM 5.7 °F -12.6 °F -8.0 °F 53% 30.07 in 10.0 mi WNW 16.1 mph 25.3 mph N/A   Scattered Clouds
1:15 PM 5.2 °F -13.9 °F -6.0 °F 60% 30.08 in 10.0 mi WNW 17.3 mph 23.0 mph N/A   Mostly Cloudy
1:35 PM 3.7 °F -15.2 °F -6.7 °F 62% 30.09 in 7.0 mi West 16.1 mph 21.9 mph N/A   Overcast
1:55 PM 4.3 °F -16.2 °F -8.9 °F 55% 30.10 in 10.0 mi WNW 19.6 mph 25.3 mph N/A   Mostly Cloudy
2:15 PM 3.9 °F -16.1 °F -9.6 °F 54% 30.11 in 10.0 mi West 18.4 mph 24.2 mph N/A   Mostly Cloudy
2:35 PM 4.1 °F -16.9 °F -8.3 °F 56% 30.12 in 10.0 mi West 20.7 mph 31.1 mph N/A   Mostly Cloudy
2:55 PM 3.0 °F -17.3 °F -5.4 °F 68% 30.14 in 3.0 mi West 18.4 mph 24.2 mph N/A   Haze
3:15 PM 2.5 °F -16.8 °F -7.4 °F 63% 30.15 in 10.0 mi West 16.1 mph 25.3 mph N/A   Overcast
3:35 PM 2.8 °F -17.5 °F -9.4 °F 57% 30.16 in 10.0 mi West 18.4 mph 24.2 mph N/A   Overcast
3:55 PM 2.5 °F -16.8 °F -8.5 °F 60% 30.17 in 7.0 mi WNW 16.1 mph 21.9 mph N/A   Overcast
4:15 PM 2.5 °F -16.8 °F -10.5 °F 55% 30.17 in 10.0 mi West 16.1 mph 20.7 mph N/A   Overcast
4:35 PM 2.3 °F -16.4 °F -10.8 °F 54% 30.18 in 10.0 mi West 15.0 mph 19.6 mph N/A   Overcast
4:55 PM 1.8 °F -17.8 °F -11.2 °F 55% 30.18 in 10.0 mi West 16.1 mph 21.9 mph N/A   Scattered Clouds
5:15 PM 1.0 °F -20.4 °F -10.8 °F 58% 30.19 in 10.0 mi West 19.6 mph 23.0 mph N/A   Clear
5:35 PM 0.9 °F -16.0 °F -8.1 °F 66% 30.21 in 7.0 mi West 11.5 mph - N/A   Mostly Cloudy
5:55 PM 0.5 °F -20.6 °F -9.6 °F 63% 30.21 in 10.0 mi WSW 18.4 mph 21.9 mph N/A   Overcast
6:15 PM 0.5 °F -14.6 °F -8.9 °F 65% 30.22 in 7.0 mi West 9.2 mph - N/A   Overcast
6:35 PM -0.0 °F -21.3 °F -9.8 °F 64% 30.23 in 7.0 mi West 18.4 mph 24.2 mph N/A   Overcast
6:55 PM 0.1 °F -18.5 °F -9.8 °F 63% 30.24 in 10.0 mi West 13.8 mph - N/A   Overcast
7:15 PM -0.8 °F -18.9 °F -9.8 °F 66% 30.25 in 10.0 mi West 12.7 mph 19.6 mph N/A   Overcast
7:35 PM -0.8 °F -18.9 °F -9.6 °F 66% 30.26 in 10.0 mi West 12.7 mph - N/A   Mostly Cloudy
7:55 PM -0.6 °F -17.8 °F -7.2 °F 73% 30.26 in 3.0 mi West 11.5 mph - N/A   Haze
8:15 PM -0.6 °F -18.6 °F -6.2 °F 77% 30.27 in 1.5 mi West 12.7 mph 19.6 mph N/A Snow Light Snow
8:35 PM -0.9 °F -21.9 °F -6.5 °F 77% 30.28 in 2.0 mi WSW 17.3 mph 23.0 mph N/A Snow Light Snow
8:55 PM -1.3 °F -20.3 °F -8.7 °F 71% 30.28 in 4.0 mi West 13.8 mph 19.6 mph N/A Snow Light Snow
9:15 PM -1.5 °F -19.0 °F -9.4 °F 69% 30.29 in 5.0 mi West 11.5 mph - N/A   Haze
9:35 PM -1.7 °F -22.2 °F -10.8 °F 65% 30.29 in 10.0 mi WSW 16.1 mph - N/A   Overcast
9:55 PM -2.2 °F -19.9 °F -11.6 °F 64% 30.30 in 10.0 mi West 11.5 mph 24.2 mph N/A   Mostly Cloudy
10:15 PM -2.2 °F -21.5 °F -10.3 °F 68% 30.30 in 7.0 mi West 13.8 mph 18.4 mph N/A   Mostly Cloudy
10:35 PM -2.2 °F -22.9 °F -11.0 °F 66% 30.31 in 10.0 mi West 16.1 mph 19.6 mph N/A   Overcast
10:55 PM -2.2 °F -22.9 °F -9.4 °F 71% 30.30 in 2.5 mi WSW 16.1 mph - N/A Snow Light Snow
11:15 PM -3.1 °F -23.3 °F -10.1 °F 72% 30.31 in 2.5 mi West 15.0 mph - N/A   Haze
11:35 PM -3.6 °F -23.3 °F -11.4 °F 69% 30.31 in 7.0 mi West 13.8 mph - N/A   Overcast
11:55 PM -4.0 °F -19.0 °F -10.3 °F 74% 30.32 in 3.0 mi West 8.1 mph - N/A   Haze